When you browse on this site, cookies collect data to enhance your experience and personalize the content and advertising you see.
Visit our Privacy Policy to learn more. By continuing to use the site, you agree to this use of cookies and data.
  • In Lithuania
  • List of Countries
  • For 7 days
  • Water Temperature
  • Weather Map
  • Weather Widgets
  • user-avatar
    Login

    Hourly Weather San Miguel de Tucumán

    Today, 29 February, Saturday

    Time Temperature Precipitation Wind Pressure Humidity
    00:00 +25°C° 0.2 mm 1 mps 723 mmHg 67%
    01:00 +24°C° 0.2 mm 1 mps 723 mmHg 69%
    02:00 +24°C° 0.2 mm 1 mps 723 mmHg 71%
    03:00 +23°C° 0 mm 1 mps 723 mmHg 72%
    04:00 +23°C° 0 mm 1 mps 724 mmHg 73%
    05:00 +22°C° 0 mm 1 mps 724 mmHg 74%
    06:00 +23°C° 0 mm 1 mps 724 mmHg 71%
    07:00 +25°C° 0 mm 1 mps 725 mmHg 69%
    08:00 +26°C° 0 mm 1 mps 726 mmHg 67%
    09:00 +28°C° 0 mm 1 mps 726 mmHg 59%
    10:00 +30°C° 0 mm 1 mps 726 mmHg 52%
    11:00 +32°C° 0 mm 1 mps 726 mmHg 45%
    12:00 +33°C° 0.1 mm 1 mps 725 mmHg 43%
    13:00 +34°C° 0.1 mm 2 mps 725 mmHg 41%
    14:00 +35°C° 0.1 mm 2 mps 724 mmHg 39%
    15:00 +35°C° 0.2 mm 2 mps 724 mmHg 40%
    16:00 +34°C° 0.2 mm 2 mps 723 mmHg 42%
    17:00 +34°C° 0.2 mm 2 mps 722 mmHg 43%
    18:00 +30°C° 0 mm 1 mps 723 mmHg 48%
    19:00 +28°C° 0 mm 1 mps 723 mmHg 53%
    20:00 +26°C° 0 mm 1 mps 723 mmHg 58%
    21:00 +25°C° 0 mm 1 mps 723 mmHg 59%
    22:00 +25°C° 0 mm 1 mps 724 mmHg 60%
    23:00 +24°C° 0 mm 1 mps 724 mmHg 60%

    Tomorrow, 1 March, Sunday

    Time Temperature Precipitation Wind Pressure Humidity
    00:00 +24°C° 0 mm 1 mps 724 mmHg 61%
    01:00 +23°C° 0 mm 1 mps 724 mmHg 61%
    02:00 +23°C° 0 mm 2 mps 723 mmHg 61%
    03:00 +21°C° 0 mm 2 mps 723 mmHg 63%
    04:00 +21°C° 0 mm 2 mps 723 mmHg 64%
    05:00 +22°C° 0 mm 1 mps 723 mmHg 65%
    06:00 +23°C° 0 mm 1 mps 723 mmHg 62%
    07:00 +24°C° 0 mm 1 mps 724 mmHg 59%
    08:00 +26°C° 0 mm 1 mps 724 mmHg 56%
    09:00 +28°C° 0 mm 1 mps 724 mmHg 49%
    10:00 +30°C° 0 mm 2 mps 724 mmHg 43%
    11:00 +32°C° 0 mm 2 mps 724 mmHg 37%
    12:00 +34°C° 0 mm 3 mps 723 mmHg 35%
    13:00 +35°C° 0 mm 3 mps 723 mmHg 34%
    14:00 +36°C° 0 mm 3 mps 722 mmHg 32%
    15:00 +35°C° 0 mm 3 mps 722 mmHg 34%
    16:00 +35°C° 0 mm 2 mps 721 mmHg 36%
    17:00 +34°C° 0 mm 2 mps 720 mmHg 38%
    18:00 +31°C° 0 mm 2 mps 720 mmHg 43%
    19:00 +28°C° 0 mm 2 mps 721 mmHg 49%
    20:00 +26°C° 0 mm 2 mps 721 mmHg 54%
    21:00 +26°C° 0 mm 2 mps 721 mmHg 55%
    22:00 +25°C° 0 mm 1 mps 722 mmHg 56%
    23:00 +24°C° 0 mm 1 mps 722 mmHg 57%

    Day after tomorrow, 2 March, Monday

    Time Temperature Precipitation Wind Pressure Humidity
    00:00 +24°C° 0 mm 1 mps 722 mmHg 57%
    01:00 +23°C° 0 mm 1 mps 721 mmHg 58%
    02:00 +23°C° 0 mm 1 mps 721 mmHg 58%
    03:00 +22°C° 0 mm 1 mps 721 mmHg 60%
    04:00 +22°C° 0 mm 1 mps 721 mmHg 61%
    05:00 +22°C° 0 mm 1 mps 721 mmHg 63%
    06:00 +23°C° 0 mm 1 mps 721 mmHg 61%
    07:00 +24°C° 0 mm 1 mps 722 mmHg 58%
    08:00 +26°C° 0 mm 1 mps 722 mmHg 56%
    09:00 +28°C° 0 mm 1 mps 722 mmHg 49%
    10:00 +30°C° 0 mm 2 mps 722 mmHg 42%
    11:00 +32°C° 0 mm 2 mps 722 mmHg 36%
    12:00 +35°C° 0 mm 2 mps 722 mmHg 34%
    13:00 +36°C° 0 mm 2 mps 722 mmHg 32%
    14:00 +37°C° 0 mm 2 mps 721 mmHg 30%
    15:00 +36°C° 0 mm 2 mps 721 mmHg 31%
    16:00 +36°C° 0 mm 2 mps 720 mmHg 33%
    17:00 +35°C° 0 mm 2 mps 720 mmHg 35%
    18:00 +32°C° 0 mm 2 mps 720 mmHg 40%
    19:00 +30°C° 0 mm 2 mps 720 mmHg 45%
    20:00 +27°C° 0 mm 2 mps 720 mmHg 51%
    21:00 +27°C° 0 mm 2 mps 720 mmHg 52%
    22:00 +26°C° 0 mm 2 mps 720 mmHg 53%
    23:00 +26°C° 0 mm 2 mps 721 mmHg 54%

    3 March, Tuesday

    Time Temperature Precipitation Wind Pressure Humidity
    00:00 +25°C° 0 mm 1 mps 720 mmHg 55%
    01:00 +24°C° 0 mm 1 mps 720 mmHg 56%
    02:00 +24°C° 0 mm 1 mps 720 mmHg 57%
    03:00 +23°C° 0 mm 1 mps 720 mmHg 57%
    04:00 +23°C° 0 mm 1 mps 720 mmHg 58%
    05:00 +23°C° 0 mm 1 mps 720 mmHg 59%
    06:00 +24°C° 0 mm 1 mps 720 mmHg 57%
    07:00 +25°C° 0 mm 1 mps 720 mmHg 56%
    08:00 +25°C° 0 mm 0 mps 721 mmHg 55%
    09:00 +29°C° 0 mm 1 mps 721 mmHg 48%
    10:00 +32°C° 0 mm 1 mps 721 mmHg 42%
    11:00 +34°C° 0 mm 1 mps 721 mmHg 35%
    12:00 +35°C° 0 mm 1 mps 721 mmHg 33%
    13:00 +36°C° 0 mm 1 mps 720 mmHg 31%
    14:00 +38°C° 0 mm 2 mps 720 mmHg 29%
    15:00 +38°C° 0 mm 2 mps 719 mmHg 30%
    16:00 +38°C° 0 mm 2 mps 719 mmHg 31%
    17:00 +37°C° 0 mm 2 mps 718 mmHg 32%
    18:00 +34°C° 0 mm 2 mps 718 mmHg 38%
    19:00 +31°C° 0 mm 2 mps 718 mmHg 43%
    20:00 +28°C° 0 mm 2 mps 719 mmHg 49%
    21:00 +27°C° 0 mm 2 mps 719 mmHg 50%
    22:00 +27°C° 0 mm 2 mps 719 mmHg 51%
    23:00 +26°C° 0 mm 2 mps 720 mmHg 53%

    4 March, Wednesday

    Time Temperature Precipitation Wind Pressure Humidity
    00:00 +26°C° 0 mm 2 mps 720 mmHg 53%
    01:00 +26°C° 0 mm 2 mps 720 mmHg 52%
    02:00 +25°C° 0 mm 2 mps 720 mmHg 52%
    03:00 +25°C° 0 mm 1 mps 719 mmHg 53%
    04:00 +24°C° 0 mm 1 mps 719 mmHg 54%
    05:00 +24°C° 0 mm 1 mps 719 mmHg 54%
    06:00 +25°C° 0 mm 1 mps 720 mmHg 54%
    07:00 +26°C° 0 mm 1 mps 720 mmHg 53%
    08:00 +26°C° 0 mm 0 mps 721 mmHg 52%
    09:00 +30°C° 0 mm 1 mps 721 mmHg 46%
    10:00 +33°C° 0 mm 1 mps 721 mmHg 40%
    11:00 +36°C° 0 mm 1 mps 721 mmHg 34%
    12:00 +37°C° 0 mm 1 mps 721 mmHg 31%
    13:00 +39°C° 0 mm 1 mps 721 mmHg 28%
    14:00 +40°C° 0 mm 2 mps 720 mmHg 26%
    15:00 +40°C° 0 mm 2 mps 720 mmHg 26%
    16:00 +39°C° 0 mm 2 mps 719 mmHg 27%
    17:00 +39°C° 0 mm 2 mps 719 mmHg 27%
    18:00 +36°C° 0 mm 2 mps 719 mmHg 32%
    19:00 +32°C° 0 mm 2 mps 719 mmHg 37%
    20:00 +29°C° 0 mm 2 mps 719 mmHg 42%
    21:00 +29°C° 0 mm 2 mps 719 mmHg 43%
    22:00 +28°C° 0 mm 2 mps 719 mmHg 44%
    23:00 +27°C° 0 mm 2 mps 720 mmHg 45%

    5 March, Thursday

    Time Temperature Precipitation Wind Pressure Humidity
    00:00 +27°C° 0 mm 2 mps 720 mmHg 46%
    01:00 +26°C° 0 mm 2 mps 720 mmHg 47%
    02:00 +26°C° 0 mm 1 mps 720 mmHg 48%
    03:00 +25°C° 0 mm 1 mps 719 mmHg 49%
    04:00 +25°C° 0 mm 1 mps 719 mmHg 50%
    05:00 +24°C° 0 mm 1 mps 719 mmHg 51%
    06:00 +25°C° 0 mm 1 mps 719 mmHg 50%
    07:00 +27°C° 0 mm 1 mps 720 mmHg 50%
    08:00 +28°C° 0 mm 1 mps 720 mmHg 49%
    09:00 +31°C° 0 mm 1 mps 720 mmHg 44%
    10:00 +33°C° 0 mm 1 mps 720 mmHg 38%
    11:00 +36°C° 0 mm 1 mps 720 mmHg 32%
    12:00 +37°C° 0 mm 1 mps 719 mmHg 29%
    13:00 +40°C° 0 mm 2 mps 719 mmHg 27%
    14:00 +41°C° 0 mm 2 mps 718 mmHg 24%
    15:00 +41°C° 0 mm 2 mps 718 mmHg 25%
    16:00 +40°C° 0 mm 2 mps 717 mmHg 25%
    17:00 +40°C° 0 mm 2 mps 716 mmHg 26%
    18:00 +37°C° 0 mm 2 mps 716 mmHg 31%
    19:00 +34°C° 0 mm 2 mps 716 mmHg 36%
    20:00 +30°C° 0 mm 2 mps 716 mmHg 41%
    21:00 +29°C° 0 mm 2 mps 717 mmHg 42%
    22:00 +29°C° 0 mm 2 mps 717 mmHg 42%
    23:00 +29°C° 0 mm 2 mps 717 mmHg 43%
    Show more